Weather in Wiesbaden

Germany     50°04′40″N   8°14′57″E
temp.,
°C
wind,
m/s
gust,
m/s
humid.,
%
clouds,
%
prec.,
mm/h
press.,
hPa
HPBL,
m
21 june, mon
mon2123:00+18e2597100 11.0 1007199
02:00+18s0196100 11.1 100757
05:00+17sw3995100 0.2 1006552
08:00+18sw489058 0.3 1007754
11:00+21sw577153 0.1 10081020
14:00+25sw47470 0.1 10081777
17:00+25wnw454980 0.0 10081521
20:00+20nnw4865100 0.0 1009453
22 june, tue
tue2223:00+15nnw3878100 0.0 1012403
02:00+14n2684100 0.1 1013328
05:00+13n2384100 0.0 1013240
08:00+15n127322 0.0 1014487
11:00+20ne335739 0.0 1014989
14:00+23e114997 0.0 10141405
17:00+22nne246030 0.3 1014785
20:00+21nnw126799 0.3 1014255
23 june, wed
wed2323:00+18nne1278100 0.0 101675
02:00+17ne2485100 0.4 1017150
05:00+16ene1497100 3.0 1018231
08:00+16ne1495100 3.8 1018292
11:00+17ene248298 0.1 1019529
14:00+23e235562 0.1 10181495
17:00+24ene235293 0.5 10161603
20:00+19ne268599 1.8 1017242
24 june, thu
thu2423:00+16ne258928 0.1 1018161
02:00+15n229192 0.1 101952
05:00+14n1191100 0.0 101845
08:00+16nnw0188100 0.2 1019180
11:00+17nw0182100 0.3 1019438
14:00+21nnw1267100 0.4 1018908
17:00+20nne018099 1.3 1018446
20:00+19n118750 2.9 1018129
25 june, fri
fri2523:00+17nne119467 1.4 101816
02:00+16ene119687 3.9 101945
05:00+15ne019898 0.5 101945
08:00+16e1195100 0.6 1019244
11:00+17sse2291100 1.9 1020502
14:00+19w238495 3.7 1020705
17:00+21sw127345 1.6 1019895
20:00+19s138717 3.1 101989